Theta_e
313 315 315 315 315 315 315 315 315 315 315 316 316 316 317 315 315 315 314 315 315 315 315 314 312 312 312 312 313 313 313 314 317 324 327 330 333 328 328 330 333 336 337 337
314 314 314 313 313 314 314 315 315 315 315 315 315 315 316 316 315 315 315 315 315 315 314 316 317 313 312 312 312 312 312 313 313 315 325 326 325 334 340 335 327 328 331 337
313 314 313 313 313 314 314 315 315 315 315 314 315 315 316 315 315 315 315 315 316 314 315 317 317 315 313 313 312 312 312 312 312 313 313 314 316 319 333 336 328 326 327 330
313 312 312 312 313 313 314 314 314 313 314 314 314 314 315 315 314 315 315 315 315 315 316 316 316 317 317 316 312 312 312 313 312 312 313 315 315 323 330 336 339 337 326 328
313 312 312 312 313 313 314 314 313 313 314 314 314 314 315 315 315 316 316 314 315 316 316 316 317 317 317 317 318 317 312 312 312 312 312 313 315 322 325 330 335 337 329 327
313 312 312 313 313 314 313 313 314 314 314 314 314 313 315 315 315 315 315 314 314 315 315 316 316 316 316 317 318 319 320 318 312 312 312 312 313 313 315 321 331 337 339 330
314 313 313 313 314 313 313 314 314 314 315 314 315 314 314 315 314 314 314 313 313 315 315 315 315 315 316 317 318 318 319 319 318 315 314 314 313 313 314 314 316 326 328 324
314 314 313 314 313 313 314 314 314 313 312 313 314 313 315 314 312 312 312 314 315 315 315 315 315 315 316 317 317 317 318 319 320 319 319 319 320 317 315 315 315 316 321 326
314 314 313 313 313 313 314 314 314 313 313 313 313 313 314 314 313 313 313 314 314 314 314 313 314 315 315 316 316 317 318 319 319 320 321 323 325 325 317 314 315 328 323 336
314 315 314 313 312 313 313 313 313 313 313 313 313 314 314 314 314 314 314 314 314 314 313 313 314 314 315 315 315 316 316 316 318 319 320 321 325 329 330 321 316 316 327 336
315 315 315 314 314 314 314 313 313 314 317 317 314 314 315 314 314 314 315 314 314 314 314 314 314 314 314 314 315 316 316 317 317 317 319 321 323 327 329 332 328 318 320 333
314 314 315 313 313 313 313 314 314 316 315 315 315 315 315 315 314 314 315 314 314 314 314 314 313 313 313 314 314 315 315 315 315 316 317 319 323 325 328 331 333 322 329 337
313 314 315 314 314 313 313 313 314 314 315 316 317 315 315 315 316 314 315 315 314 314 314 314 313 313 313 313 313 313 314 313 314 315 317 318 322 324 326 329 333 332 335 338
313 314 314 315 313 313 314 313 313 313 316 315 315 315 315 315 316 315 315 315 314 314 314 313 313 313 312 312 313 313 313 312 314 316 317 318 321 324 326 328 334 336 336 338
313 315 314 313 313 313 313 313 313 313 314 315 314 315 315 315 315 315 314 314 314 314 314 314 313 314 314 314 314 313 313 312 313 315 316 318 321 323 325 326 336 337 336 339
312 314 313 312 311 311 312 313 312 312 313 314 314 314 314 313 314 314 314 315 314 314 314 314 313 314 314 314 314 313 313 311 312 314 315 318 321 322 324 330 338 337 337 342
311 312 313 313 311 311 313 312 312 313 313 313 314 314 316 315 315 315 315 314 314 314 314 314 314 314 314 314 313 313 312 312 312 313 316 318 320 321 328 335 340 336 339 344
310 311 313 314 311 315 312 312 313 314 315 315 314 315 315 314 314 314 313 313 314 315 315 314 314 314 313 313 312 312 311 311 313 314 316 317 316 322 332 337 337 337 342 345
310 312 312 313 313 311 311 312 314 316 316 314 315 314 314 313 313 313 313 313 313 313 313 312 312 311 311 311 311 311 310 311 310 312 313 315 318 326 333 338 336 340 344 345
310 311 313 313 315 315 315 313 313 314 316 315 314 314 314 312 315 315 313 313 313 311 310 311 310 309 309 310 310 310 311 311 311 312 314 317 324 330 334 337 340 343 343 344
314 311 312 313 316 315 314 313 312 316 316 313 313 312 312 314 314 313 313 312 310 310 309 308 309 308 309 309 309 311 312 312 313 312 314 320 326 334 336 337 340 341 345 345
313 314 315 315 317 316 312 313 314 313 312 312 312 312 312 312 312 312 311 310 309 308 308 308 307 307 308 309 309 312 312 311 313 314 318 326 336 338 337 337 338 340 343 346
313 312 313 313 314 312 311 311 311 311 309 309 310 310 312 312 312 312 310 309 308 308 307 307 307 307 308 310 310 312 314 315 315 318 325 331 335 338 342 343 343 343 345 342
310 310 311 312 311 311 310 310 311 311 311 311 311 311 312 311 311 309 308 308 308 307 307 306 306 308 310 311 312 314 315 316 319 321 327 330 334 335 339 339 341 341 339 337
310 309 307 309 310 308 309 308 309 310 310 309 308 308 308 308 308 308 308 308 307 307 306 306 307 308 309 310 312 315 316 317 320 322 326 331 333 335 336 337 336 336 336 336
304 307 307 307 304 304 305 308 309 307 306 306 307 308 307 307 307 306 306 306 306 305 305 304 306 307 308 310 313 317 317 319 320 324 328 331 331 333 334 334 334 334 332 332
Wind_Speed
6 9 11 8 7 9 8 8 9 4 1 10 14 14 12 16 19 17 17 17 13 11 9 3 3 4 7 7 9 9 8 9 12 22 32 23 21 25 24 25 28 29 32 34
8 12 1 4 6 9 9 9 9 6 7 8 14 17 16 16 18 24 24 25 19 12 7 3 1 4 7 8 9 12 12 11 11 12 22 28 38 20 20 20 24 24 27 30
12 2 4 7 7 10 10 10 5 10 6 14 17 21 23 17 12 14 17 19 14 11 5 2 4 7 7 10 11 15 13 14 14 15 15 18 21 25 24 22 23 27 26 28
7 1 10 8 9 8 12 8 6 8 10 9 3 8 5 9 10 9 10 10 12 7 3 1 2 4 6 7 11 14 17 18 18 18 18 19 21 21 20 18 19 23 25 27
4 7 11 9 11 8 11 3 8 10 13 15 16 8 10 5 8 9 7 7 8 5 3 2 5 7 8 11 11 15 17 19 21 23 22 22 23 20 20 20 23 26 27 29
12 4 7 9 3 7 1 9 12 13 12 12 19 10 9 10 9 8 5 6 3 3 5 5 7 9 10 12 13 14 14 17 19 23 25 25 26 28 27 26 23 23 24 28
14 13 6 8 11 9 10 10 10 9 9 8 6 6 12 7 3 5 4 4 5 6 6 8 10 11 12 13 15 16 18 21 22 22 24 26 28 29 31 32 32 28 29 34
11 10 14 11 13 10 6 7 9 8 8 6 11 6 3 5 3 3 6 6 4 5 7 13 16 15 15 16 17 18 19 21 21 24 25 26 27 28 30 32 33 35 33 33
13 14 5 6 5 9 6 10 6 11 15 12 11 6 8 9 8 6 3 5 9 9 11 15 16 18 20 20 19 19 20 21 21 23 24 25 26 27 31 34 36 30 32 26
8 13 11 5 7 9 12 5 6 9 10 15 9 9 4 11 3 4 5 6 10 14 18 21 20 19 19 20 23 23 23 24 25 25 25 25 25 25 26 31 37 38 32 28
9 9 14 7 13 16 8 12 10 7 6 7 8 2 9 2 2 4 7 13 17 19 19 19 19 20 21 20 20 21 24 26 26 27 27 27 26 26 26 28 32 37 36 30
6 6 12 16 10 5 13 16 14 11 12 9 11 13 4 3 2 7 16 22 20 18 19 18 18 18 19 20 20 20 21 23 28 30 29 29 28 28 28 29 30 34 33 29
4 8 10 14 8 8 10 15 15 15 16 16 13 6 8 7 12 19 19 22 21 20 20 20 21 20 20 20 23 25 26 27 28 29 30 30 30 30 31 33 31 33 29 29
5 15 18 15 15 5 7 8 11 15 13 16 20 22 19 19 20 18 19 21 23 22 22 21 21 21 24 24 24 26 29 30 29 26 30 32 32 31 31 32 30 31 30 29
13 18 18 19 18 17 18 20 21 21 22 22 24 26 23 22 20 19 19 21 23 23 25 24 22 24 26 28 28 29 30 31 30 29 32 32 31 32 32 34 30 32 32 31
14 16 18 21 20 21 20 22 25 26 26 27 28 30 24 30 26 16 19 22 26 27 27 26 29 31 31 31 30 32 33 34 34 30 32 32 31 31 33 35 30 32 32 32
12 10 11 16 17 12 13 22 23 23 25 24 24 23 16 10 12 16 19 25 30 31 30 29 31 29 30 32 33 36 36 38 36 31 32 31 30 33 34 32 30 32 35 36
17 12 6 7 9 10 14 4 8 12 13 12 18 17 15 15 15 21 26 29 26 25 26 31 32 34 35 37 38 39 40 40 34 32 31 31 39 34 31 28 31 34 36 40
17 14 5 6 9 16 16 11 9 8 13 11 11 11 10 18 26 27 24 19 22 30 33 33 34 38 39 39 39 40 41 38 39 40 38 37 34 28 27 29 33 36 36 37
8 12 8 6 5 4 3 2 4 6 13 7 5 13 18 27 16 16 28 30 31 33 33 35 36 39 40 39 38 38 34 34 36 40 43 44 30 25 29 33 35 37 38 38
3 2 11 13 6 6 5 5 5 6 4 20 25 28 29 19 22 31 33 34 33 34 35 35 37 37 35 33 31 31 30 34 30 38 45 39 30 31 36 40 36 36 38 39
3 3 3 5 5 4 7 11 8 16 27 29 33 33 31 30 33 32 32 34 35 36 35 33 34 36 33 30 32 29 31 32 32 38 42 35 28 32 34 35 36 38 42 42
2 5 4 4 5 18 14 18 23 22 26 27 29 28 31 34 35 35 35 37 37 32 34 34 35 33 34 29 30 31 26 30 35 38 30 18 19 31 34 38 40 40 41 40
5 9 4 9 0 16 21 25 21 25 27 28 31 35 35 35 36 37 37 37 35 33 32 34 30 30 30 26 25 24 23 24 25 29 18 8 10 25 31 34 37 40 39 38
6 9 11 13 16 22 11 23 26 32 30 31 33 34 36 38 38 37 38 38 35 29 32 29 29 29 33 29 24 19 18 18 20 19 8 9 21 29 34 33 29 29 35 40
3 4 3 6 27 21 22 28 31 29 34 33 33 35 35 36 35 34 35 29 27 32 30 30 27 28 28 27 21 16 15 14 16 11 4 18 27 36 36 36 36 33 34 31
Wind_Direction
204 245 226 239 241 303 285 267 261 232 228 269 253 255 246 247 250 240 240 249 249 225 222 275 258 274 283 276 287 284 265 258 233 237 248 264 270 258 257 252 247 246 248 246
220 238 216 259 244 234 238 243 239 266 268 283 274 269 268 259 252 250 245 239 233 217 220 205 333 274 310 312 291 284 281 273 274 252 236 239 250 255 256 249 250 249 248 247
261 38 135 228 195 220 225 256 258 274 310 274 269 280 254 240 240 241 239 237 218 215 203 308 356 11 322 309 302 295 291 289 279 271 260 260 261 261 251 248 247 252 255 254
261 106 216 225 246 243 251 204 265 272 275 278 147 288 235 222 244 203 189 189 199 184 169 89 8 335 339 327 308 297 303 295 287 283 272 264 261 255 252 255 253 251 253 255
108 191 203 246 259 213 279 194 261 280 271 280 264 246 247 181 188 167 167 168 170 173 161 290 319 326 329 330 330 327 309 297 296 286 281 272 269 270 272 268 256 253 253 255
265 235 262 278 209 230 109 240 241 244 257 248 243 220 215 188 201 152 136 140 158 255 271 297 310 313 311 320 322 322 322 313 309 291 285 277 271 269 263 261 260 254 251 252
231 229 219 232 217 199 229 247 270 237 204 243 114 229 263 146 168 206 279 247 258 269 281 302 312 311 305 306 311 318 320 324 316 310 288 280 274 270 267 260 262 259 255 254
275 247 199 186 233 288 236 294 276 274 272 278 157 245 133 145 160 301 283 268 244 245 309 313 312 306 301 298 304 306 306 307 307 308 301 286 282 273 267 262 258 260 262 257
265 243 146 237 230 248 206 240 331 288 268 262 248 204 214 216 224 186 211 226 252 262 287 300 302 301 302 300 298 298 300 299 300 297 298 291 285 280 268 259 254 254 259 247
282 270 236 179 247 222 258 314 226 209 266 253 236 227 212 182 138 155 224 276 290 287 287 289 293 291 288 290 295 299 298 297 294 294 291 289 279 278 274 265 253 248 245 248
281 250 272 198 234 256 204 227 232 288 288 272 270 261 106 195 256 278 292 304 295 288 290 289 290 290 291 290 286 285 292 296 292 290 288 285 280 276 274 268 260 249 246 242
248 284 274 270 302 289 281 277 239 233 232 229 273 279 124 220 273 305 293 304 301 291 290 287 290 293 296 298 295 292 292 291 291 289 283 281 278 273 275 267 262 249 242 238
220 240 265 242 212 214 242 242 248 259 268 265 260 228 162 218 255 315 305 310 301 293 286 287 290 289 292 294 295 298 298 298 294 284 279 281 278 274 271 270 260 249 240 232
283 267 264 269 295 184 251 237 234 241 245 253 249 268 270 276 287 297 299 307 305 291 285 282 282 286 293 294 293 295 300 301 298 280 279 278 274 272 269 269 261 249 232 225
241 258 262 262 271 279 281 271 259 248 245 250 267 269 275 279 284 291 298 296 306 296 285 280 284 291 293 294 292 291 296 297 296 282 281 273 273 274 270 268 256 241 225 218
246 256 268 269 269 268 261 263 260 259 259 260 264 270 274 277 279 278 271 293 304 303 292 283 286 288 290 292 290 291 294 296 293 281 282 273 274 275 267 265 247 229 217 208
256 258 262 257 260 284 270 255 255 256 253 252 256 267 298 281 261 282 294 296 301 297 294 293 294 293 291 292 291 287 290 295 288 283 281 275 281 278 261 250 233 216 208 198
249 250 272 278 293 251 256 270 279 282 284 268 253 269 269 290 304 297 294 295 305 306 309 303 296 292 291 292 290 286 290 294 285 282 278 280 293 269 250 234 218 206 199 191
227 230 238 242 239 267 297 279 271 277 285 303 278 283 312 306 301 287 288 310 305 299 298 294 293 291 290 291 290 289 291 286 288 282 283 289 284 266 235 218 204 198 190 184
204 241 224 209 238 263 90 86 341 317 281 94 346 313 312 310 297 294 307 310 300 298 295 296 295 293 292 290 291 289 285 283 287 286 290 294 280 241 223 198 192 185 181 178
151 164 223 234 265 287 41 65 333 268 336 319 309 304 301 292 293 306 301 299 298 299 301 300 297 296 292 293 291 289 287 279 281 286 292 294 258 230 197 188 183 173 170 170
281 284 204 214 247 267 33 328 313 316 311 314 308 302 303 295 292 294 298 299 301 302 304 302 298 296 291 292 293 288 284 285 285 280 287 263 190 175 174 175 169 166 163 160
314 357 302 286 295 320 323 326 318 315 300 294 293 294 292 294 295 298 300 300 301 301 306 304 300 295 294 293 294 290 285 286 288 300 336 41 133 152 156 158 155 156 158 152
329 349 285 319 238 323 329 310 310 308 300 299 299 295 295 294 297 299 299 299 301 303 299 303 298 292 293 297 293 288 287 292 301 314 342 26 127 144 156 161 160 155 155 152
3 319 342 285 284 333 307 315 314 309 310 310 307 303 301 299 299 302 300 298 299 294 300 299 293 294 295 303 301 289 285 291 301 314 326 142 143 150 147 146 150 149 153 161
343 345 309 289 305 293 278 301 303 321 321 314 311 308 302 300 298 298 295 297 295 298 295 293 291 292 294 298 299 286 282 280 288 309 300 153 146 141 137 134 134 137 139 141